QPF
0.01 0.01 0.00 0.00 0.00 0.00 0.00 0.00 0.00 0.00 0.00 0.02 0.05 0.05 0.03 0.03 0.04 0.05 0.05 0.04 0.05 0.07 0.07 0.04 0.02 0.03 0.04 0.04 0.05 0.06 0.08 0.06 0.04 0.03 0.02 0.00 0.00 0.00 0.00 0.00 0.00 0.00 0.01
0.01 0.00 0.00 0.00 0.00 0.00 0.00 0.00 0.00 0.00 0.00 0.00 0.02 0.04 0.04 0.04 0.04 0.04 0.05 0.05 0.03 0.04 0.05 0.06 0.03 0.02 0.02 0.02 0.03 0.04 0.05 0.05 0.05 0.04 0.03 0.01 0.00 0.00 0.00 0.00 0.00 0.00 0.01
0.00 0.00 0.00 0.00 0.00 0.00 0.00 0.00 0.00 0.00 0.00 0.00 0.00 0.01 0.02 0.03 0.03 0.03 0.04 0.03 0.04 0.03 0.02 0.03 0.03 0.02 0.01 0.01 0.01 0.02 0.04 0.05 0.04 0.04 0.03 0.02 0.01 0.00 0.00 0.00 0.00 0.00 0.01
0.00 0.00 0.00 0.00 0.00 0.00 0.00 0.00 0.00 0.00 0.00 0.00 0.00 0.00 0.01 0.02 0.02 0.01 0.02 0.01 0.02 0.02 0.02 0.02 0.01 0.01 0.01 0.01 0.01 0.00 0.02 0.05 0.05 0.04 0.03 0.02 0.02 0.02 0.01 0.00 0.00 0.01 0.01
0.00 0.00 0.00 0.00 0.00 0.00 0.00 0.00 0.00 0.00 0.00 0.00 0.00 0.00 0.00 0.00 0.00 0.01 0.01 0.00 0.00 0.01 0.01 0.01 0.01 0.01 0.01 0.01 0.01 0.01 0.00 0.01 0.04 0.05 0.04 0.04 0.03 0.02 0.02 0.01 0.01 0.01 0.01
0.00 0.00 0.00 0.00 0.00 0.00 0.00 0.00 0.00 0.00 0.00 0.00 0.00 0.00 0.00 0.00 0.00 0.00 0.00 0.00 0.00 0.00 0.01 0.00 0.01 0.01 0.01 0.01 0.01 0.01 0.01 0.00 0.01 0.03 0.04 0.03 0.02 0.02 0.02 0.01 0.01 0.01 0.01
0.00 0.00 0.00 0.00 0.00 0.00 0.00 0.00 0.00 0.00 0.00 0.00 0.00 0.00 0.00 0.00 0.00 0.00 0.00 0.00 0.00 0.00 0.01 0.01 0.00 0.00 0.01 0.01 0.01 0.01 0.01 0.01 0.00 0.01 0.02 0.03 0.02 0.01 0.01 0.01 0.01 0.01 0.01
0.00 0.00 0.00 0.00 0.00 0.00 0.00 0.00 0.00 0.00 0.00 0.00 0.00 0.00 0.00 0.00 0.00 0.00 0.00 0.00 0.00 0.00 0.00 0.01 0.01 0.00 0.00 0.00 0.00 0.00 0.00 0.00 0.00 0.00 0.01 0.01 0.02 0.01 0.01 0.01 0.01 0.01 0.01
0.00 0.00 0.00 0.00 0.00 0.00 0.00 0.00 0.00 0.00 0.00 0.00 0.00 0.00 0.00 0.00 0.00 0.00 0.00 0.00 0.00 0.00 0.00 0.00 0.00 0.00 0.00 0.00 0.00 0.00 0.00 0.00 0.00 0.00 0.00 0.00 0.01 0.01 0.01 0.01 0.01 0.02 0.02
0.00 0.00 0.00 0.00 0.00 0.00 0.00 0.00 0.00 0.00 0.00 0.00 0.00 0.00 0.00 0.00 0.00 0.00 0.00 0.00 0.00 0.00 0.00 0.00 0.00 0.00 0.00 0.00 0.00 0.00 0.00 0.00 0.00 0.00 0.00 0.00 0.00 0.01 0.01 0.01 0.01 0.02 0.02
0.00 0.00 0.00 0.00 0.00 0.00 0.00 0.00 0.00 0.00 0.00 0.00 0.00 0.00 0.00 0.00 0.00 0.00 0.00 0.00 0.00 0.00 0.00 0.00 0.00 0.00 0.00 0.00 0.00 0.00 0.00 0.00 0.00 0.00 0.00 0.00 0.00 0.00 0.01 0.01 0.01 0.02 0.03
0.00 0.00 0.00 0.00 0.00 0.00 0.00 0.00 0.00 0.00 0.00 0.00 0.00 0.00 0.00 0.00 0.00 0.00 0.00 0.00 0.00 0.00 0.00 0.00 0.00 0.00 0.00 0.00 0.00 0.00 0.00 0.00 0.00 0.00 0.00 0.00 0.01 0.01 0.01 0.01 0.01 0.01 0.02
0.00 0.00 0.00 0.00 0.00 0.00 0.00 0.00 0.00 0.00 0.00 0.00 0.00 0.00 0.00 0.00 0.00 0.00 0.00 0.00 0.00 0.00 0.00 0.00 0.00 0.00 0.00 0.00 0.00 0.00 0.00 0.00 0.00 0.00 0.00 0.00 0.00 0.01 0.01 0.01 0.01 0.02 0.02
0.00 0.00 0.00 0.00 0.00 0.00 0.00 0.00 0.00 0.00 0.00 0.00 0.00 0.00 0.00 0.00 0.00 0.00 0.00 0.00 0.00 0.00 0.00 0.00 0.00 0.00 0.00 0.00 0.00 0.00 0.00 0.00 0.00 0.00 0.00 0.00 0.00 0.00 0.00 0.00 0.00 0.00 0.01
0.00 0.00 0.00 0.00 0.00 0.00 0.00 0.00 0.00 0.00 0.00 0.00 0.00 0.00 0.00 0.00 0.00 0.00 0.00 0.00 0.00 0.00 0.00 0.00 0.00 0.00 0.00 0.00 0.00 0.00 0.00 0.00 0.00 0.00 0.00 0.00 0.00 0.00 0.00 0.00 0.00 0.00 0.00
0.00 0.00 0.00 0.00 0.00 0.00 0.00 0.00 0.00 0.00 0.00 0.00 0.00 0.00 0.00 0.00 0.00 0.00 0.00 0.00 0.00 0.00 0.00 0.00 0.00 0.00 0.00 0.00 0.00 0.00 0.00 0.00 0.00 0.00 0.00 0.00 0.01 0.01 0.01 0.01 0.01 0.01 0.00
0.00 0.00 0.00 0.00 0.00 0.00 0.00 0.00 0.00 0.00 0.00 0.00 0.00 0.00 0.00 0.00 0.00 0.00 0.00 0.00 0.00 0.00 0.00 0.00 0.00 0.00 0.00 0.00 0.00 0.00 0.00 0.00 0.00 0.00 0.00 0.00 0.00 0.00 0.00 0.01 0.01 0.00 0.00
0.00 0.00 0.00 0.00 0.00 0.00 0.00 0.00 0.00 0.00 0.00 0.00 0.00 0.00 0.00 0.00 0.00 0.00 0.00 0.00 0.00 0.00 0.00 0.00 0.00 0.00 0.00 0.00 0.00 0.00 0.00 0.00 0.00 0.00 0.00 0.00 0.00 0.00 0.00 0.00 0.00 0.00 0.00
0.00 0.00 0.00 0.00 0.00 0.00 0.00 0.00 0.00 0.00 0.00 0.00 0.00 0.00 0.00 0.00 0.00 0.00 0.00 0.00 0.00 0.00 0.00 0.00 0.00 0.01 0.00 0.00 0.00 0.00 0.00 0.00 0.00 0.00 0.00 0.00 0.00 0.00 0.00 0.00 0.00 0.00 0.00
0.00 0.00 0.00 0.00 0.00 0.00 0.00 0.00 0.00 0.00 0.00 0.00 0.00 0.00 0.00 0.00 0.00 0.00 0.00 0.00 0.00 0.00 0.00 0.00 0.00 0.01 0.01 0.01 0.01 0.00 0.00 0.00 0.00 0.00 0.00 0.01 0.01 0.00 0.00 0.00 0.00 0.00 0.00
0.00 0.00 0.00 0.00 0.00 0.00 0.00 0.00 0.00 0.00 0.00 0.00 0.00 0.00 0.00 0.00 0.00 0.00 0.00 0.00 0.00 0.00 0.00 0.01 0.01 0.01 0.01 0.01 0.01 0.01 0.01 0.00 0.00 0.00 0.00 0.01 0.01 0.01 0.01 0.01 0.01 0.01 0.00
0.00 0.00 0.00 0.00 0.00 0.00 0.00 0.00 0.00 0.00 0.00 0.00 0.00 0.00 0.00 0.00 0.00 0.00 0.00 0.00 0.00 0.00 0.00 0.01 0.01 0.01 0.01 0.01 0.01 0.01 0.01 0.01 0.01 0.01 0.00 0.01 0.01 0.01 0.01 0.01 0.01 0.01 0.00
0.00 0.00 0.00 0.00 0.00 0.00 0.00 0.00 0.00 0.00 0.00 0.00 0.00 0.00 0.00 0.00 0.00 0.00 0.00 0.00 0.00 0.00 0.00 0.00 0.01 0.01 0.01 0.01 0.01 0.01 0.01 0.01 0.01 0.01 0.01 0.01 0.00 0.00 0.00 0.00 0.00 0.00 0.00
0.00 0.00 0.00 0.00 0.00 0.00 0.00 0.00 0.00 0.00 0.00 0.00 0.00 0.00 0.00 0.00 0.00 0.00 0.00 0.00 0.01 0.01 0.01 0.00 0.01 0.01 0.01 0.01 0.01 0.01 0.01 0.01 0.01 0.01 0.01 0.01 0.01 0.00 0.00 0.00 0.00 0.00 0.00
0.00 0.00 0.00 0.00 0.00 0.00 0.00 0.00 0.00 0.00 0.00 0.00 0.00 0.00 0.00 0.00 0.00 0.00 0.01 0.01 0.02 0.02 0.02 0.01 0.01 0.01 0.01 0.02 0.02 0.02 0.02 0.02 0.01 0.01 0.01 0.01 0.01 0.01 0.00 0.00 0.00 0.00 0.00
0.00 0.00 0.00 0.00 0.00 0.00 0.00 0.00 0.00 0.00 0.00 0.00 0.00 0.00 0.00 0.00 0.00 0.00 0.00 0.01 0.02 0.02 0.02 0.02 0.02 0.02 0.02 0.03 0.02 0.02 0.02 0.02 0.01 0.01 0.00 0.01 0.01 0.01 0.00 0.00 0.00 0.00 0.00
MSLP
1020.78 1021.10 1021.40 1021.68 1021.88 1022.02 1022.07 1022.07 1022.03 1021.97 1021.94 1021.93 1021.96 1022.01 1022.07 1022.12 1022.13 1022.10 1022.02 1021.91 1021.77 1021.62 1021.48 1021.35 1021.23 1021.09 1020.93 1020.71 1020.43 1020.07 1019.65 1019.18 1018.69 1018.20 1017.74 1017.33 1016.99 1016.70 1016.48 1016.31 1016.19 1016.10 1016.03
1020.61 1020.97 1021.32 1021.63 1021.86 1022.01 1022.08 1022.10 1022.09 1022.08 1022.10 1022.15 1022.22 1022.31 1022.38 1022.41 1022.40 1022.33 1022.21 1022.07 1021.92 1021.78 1021.66 1021.57 1021.48 1021.39 1021.25 1021.05 1020.78 1020.43 1020.01 1019.54 1019.06 1018.59 1018.16 1017.79 1017.48 1017.24 1017.06 1016.93 1016.85 1016.80 1016.78
1020.29 1020.73 1021.15 1021.51 1021.79 1021.97 1022.08 1022.13 1022.17 1022.21 1022.27 1022.37 1022.49 1022.61 1022.69 1022.73 1022.69 1022.60 1022.45 1022.28 1022.12 1021.97 1021.86 1021.77 1021.70 1021.62 1021.50 1021.32 1021.06 1020.73 1020.33 1019.90 1019.46 1019.04 1018.67 1018.35 1018.10 1017.90 1017.76 1017.66 1017.59 1017.56 1017.55
1019.89 1020.40 1020.91 1021.34 1021.68 1021.92 1022.07 1022.16 1022.23 1022.32 1022.43 1022.58 1022.73 1022.88 1022.99 1023.03 1022.99 1022.88 1022.72 1022.53 1022.34 1022.18 1022.06 1021.97 1021.90 1021.81 1021.70 1021.52 1021.28 1020.98 1020.63 1020.27 1019.90 1019.56 1019.26 1019.02 1018.82 1018.67 1018.55 1018.46 1018.39 1018.34 1018.31
1019.46 1020.06 1020.64 1021.15 1021.55 1021.84 1022.04 1022.17 1022.27 1022.39 1022.53 1022.71 1022.90 1023.07 1023.20 1023.26 1023.23 1023.13 1022.97 1022.78 1022.58 1022.40 1022.26 1022.15 1022.06 1021.96 1021.84 1021.68 1021.47 1021.22 1020.93 1020.64 1020.37 1020.13 1019.92 1019.76 1019.62 1019.51 1019.40 1019.30 1019.20 1019.10 1019.02
1019.06 1019.73 1020.38 1020.95 1021.40 1021.74 1021.96 1022.12 1022.24 1022.37 1022.53 1022.72 1022.93 1023.13 1023.29 1023.37 1023.38 1023.30 1023.16 1022.98 1022.78 1022.60 1022.45 1022.32 1022.20 1022.09 1021.97 1021.82 1021.64 1021.44 1021.23 1021.03 1020.86 1020.71 1020.60 1020.51 1020.42 1020.34 1020.23 1020.10 1019.96 1019.81 1019.66
1018.73 1019.43 1020.12 1020.73 1021.22 1021.58 1021.82 1021.98 1022.11 1022.23 1022.39 1022.59 1022.81 1023.02 1023.21 1023.33 1023.38 1023.34 1023.24 1023.10 1022.93 1022.75 1022.60 1022.46 1022.33 1022.21 1022.08 1021.94 1021.80 1021.65 1021.52 1021.40 1021.32 1021.27 1021.23 1021.20 1021.16 1021.09 1020.97 1020.81 1020.62 1020.42 1020.21
1018.47 1019.17 1019.87 1020.48 1020.98 1021.34 1021.58 1021.73 1021.84 1021.96 1022.10 1022.29 1022.51 1022.74 1022.95 1023.12 1023.22 1023.25 1023.21 1023.11 1022.98 1022.84 1022.69 1022.55 1022.42 1022.30 1022.17 1022.05 1021.94 1021.84 1021.77 1021.72 1021.71 1021.73 1021.75 1021.76 1021.75 1021.68 1021.56 1021.38 1021.16 1020.91 1020.65
1018.26 1018.93 1019.60 1020.19 1020.67 1021.01 1021.23 1021.37 1021.46 1021.55 1021.68 1021.85 1022.07 1022.31 1022.55 1022.76 1022.92 1023.01 1023.04 1023.01 1022.94 1022.84 1022.72 1022.60 1022.48 1022.36 1022.24 1022.14 1022.05 1021.98 1021.95 1021.96 1021.99 1022.05 1022.10 1022.14 1022.14 1022.08 1021.95 1021.76 1021.53 1021.27 1020.99
1018.08 1018.69 1019.30 1019.84 1020.28 1020.59 1020.79 1020.90 1020.97 1021.04 1021.15 1021.31 1021.53 1021.78 1022.04 1022.30 1022.51 1022.66 1022.76 1022.80 1022.79 1022.74 1022.67 1022.58 1022.47 1022.36 1022.26 1022.17 1022.10 1022.06 1022.05 1022.07 1022.13 1022.20 1022.27 1022.31 1022.31 1022.26 1022.14 1021.96 1021.74 1021.48 1021.22
1017.91 1018.43 1018.97 1019.45 1019.84 1020.11 1020.29 1020.38 1020.44 1020.50 1020.60 1020.75 1020.96 1021.22 1021.49 1021.77 1022.02 1022.23 1022.39 1022.49 1022.54 1022.55 1022.52 1022.46 1022.39 1022.30 1022.21 1022.14 1022.08 1022.04 1022.04 1022.07 1022.12 1022.18 1022.24 1022.28 1022.28 1022.23 1022.13 1021.98 1021.79 1021.57 1021.35
1017.75 1018.18 1018.63 1019.05 1019.39 1019.63 1019.78 1019.88 1019.93 1020.00 1020.09 1020.24 1020.44 1020.68 1020.96 1021.24 1021.51 1021.75 1021.95 1022.09 1022.19 1022.24 1022.26 1022.24 1022.20 1022.14 1022.08 1022.02 1021.97 1021.95 1021.94 1021.96 1021.99 1022.04 1022.08 1022.10 1022.10 1022.05 1021.97 1021.86 1021.72 1021.56 1021.38
1017.60 1017.96 1018.33 1018.68 1018.97 1019.19 1019.34 1019.44 1019.51 1019.58 1019.68 1019.82 1020.00 1020.22 1020.47 1020.74 1021.00 1021.24 1021.45 1021.61 1021.74 1021.83 1021.89 1021.91 1021.91 1021.89 1021.86 1021.82 1021.79 1021.77 1021.76 1021.77 1021.79 1021.81 1021.83 1021.84 1021.83 1021.79 1021.73 1021.65 1021.56 1021.45 1021.33
1017.52 1017.80 1018.11 1018.40 1018.66 1018.87 1019.02 1019.14 1019.22 1019.30 1019.40 1019.52 1019.67 1019.86 1020.06 1020.28 1020.50 1020.71 1020.90 1021.07 1021.21 1021.33 1021.41 1021.47 1021.51 1021.53 1021.54 1021.54 1021.54 1021.53 1021.53 1021.54 1021.54 1021.55 1021.55 1021.54 1021.53 1021.49 1021.45 1021.40 1021.34 1021.27 1021.20
1017.52 1017.75 1018.00 1018.25 1018.49 1018.69 1018.85 1018.98 1019.08 1019.17 1019.26 1019.35 1019.46 1019.58 1019.72 1019.86 1020.02 1020.17 1020.33 1020.47 1020.61 1020.74 1020.85 1020.95 1021.03 1021.10 1021.15 1021.19 1021.23 1021.25 1021.27 1021.29 1021.29 1021.29 1021.28 1021.26 1021.23 1021.20 1021.16 1021.12 1021.08 1021.03 1020.98
1017.64 1017.83 1018.03 1018.25 1018.46 1018.66 1018.83 1018.97 1019.08 1019.17 1019.24 1019.29 1019.33 1019.38 1019.42 1019.48 1019.55 1019.63 1019.73 1019.84 1019.96 1020.09 1020.22 1020.35 1020.48 1020.59 1020.70 1020.79 1020.87 1020.93 1020.98 1021.02 1021.04 1021.04 1021.03 1021.00 1020.96 1020.92 1020.87 1020.82 1020.78 1020.73 1020.69
1017.88 1018.02 1018.19 1018.38 1018.58 1018.76 1018.94 1019.08 1019.19 1019.26 1019.29 1019.29 1019.26 1019.21 1019.17 1019.13 1019.10 1019.11 1019.15 1019.21 1019.31 1019.44 1019.58 1019.74 1019.90 1020.06 1020.21 1020.35 1020.48 1020.58 1020.67 1020.73 1020.77 1020.79 1020.78 1020.75 1020.70 1020.64 1020.57 1020.50 1020.44 1020.38 1020.32
1018.20 1018.31 1018.45 1018.60 1018.78 1018.96 1019.12 1019.26 1019.35 1019.39 1019.38 1019.31 1019.21 1019.07 1018.93 1018.79 1018.69 1018.62 1018.59 1018.62 1018.70 1018.82 1018.97 1019.14 1019.33 1019.52 1019.70 1019.88 1020.04 1020.19 1020.31 1020.41 1020.47 1020.51 1020.51 1020.48 1020.42 1020.34 1020.25 1020.15 1020.06 1019.98 1019.90
1018.56 1018.63 1018.73 1018.86 1019.01 1019.17 1019.32 1019.44 1019.51 1019.51 1019.45 1019.32 1019.14 1018.93 1018.71 1018.49 1018.31 1018.19 1018.12 1018.11 1018.16 1018.27 1018.42 1018.59 1018.79 1018.99 1019.19 1019.39 1019.57 1019.74 1019.90 1020.02 1020.11 1020.17 1020.18 1020.16 1020.10 1020.01 1019.90 1019.78 1019.66 1019.55 1019.46
1018.90 1018.93 1018.99 1019.09 1019.21 1019.35 1019.47 1019.57 1019.61 1019.58 1019.47 1019.29 1019.05 1018.78 1018.50 1018.23 1018.01 1017.83 1017.73 1017.70 1017.73 1017.82 1017.95 1018.12 1018.30 1018.49 1018.68 1018.88 1019.07 1019.25 1019.42 1019.56 1019.68 1019.76 1019.80 1019.79 1019.74 1019.65 1019.54 1019.40 1019.27 1019.14 1019.03
1019.18 1019.17 1019.19 1019.25 1019.34 1019.45 1019.55 1019.61 1019.62 1019.56 1019.42 1019.20 1018.93 1018.62 1018.31 1018.01 1017.76 1017.57 1017.45 1017.40 1017.41 1017.47 1017.58 1017.71 1017.86 1018.02 1018.18 1018.36 1018.53 1018.71 1018.88 1019.04 1019.18 1019.29 1019.35 1019.37 1019.35 1019.28 1019.17 1019.03 1018.90 1018.76 1018.65
1019.36 1019.31 1019.29 1019.32 1019.37 1019.45 1019.52 1019.56 1019.54 1019.46 1019.29 1019.06 1018.77 1018.45 1018.13 1017.83 1017.57 1017.38 1017.25 1017.18 1017.17 1017.20 1017.27 1017.36 1017.46 1017.57 1017.69 1017.82 1017.97 1018.13 1018.30 1018.47 1018.64 1018.78 1018.88 1018.94 1018.94 1018.90 1018.82 1018.71 1018.58 1018.46 1018.35
1019.46 1019.37 1019.31 1019.30 1019.32 1019.37 1019.41 1019.42 1019.38 1019.27 1019.10 1018.86 1018.57 1018.26 1017.94 1017.66 1017.41 1017.22 1017.09 1017.01 1016.98 1016.97 1016.99 1017.02 1017.06 1017.11 1017.18 1017.27 1017.39 1017.54 1017.71 1017.89 1018.08 1018.25 1018.40 1018.50 1018.55 1018.55 1018.50 1018.42 1018.32 1018.22 1018.13
1019.50 1019.37 1019.27 1019.22 1019.21 1019.22 1019.22 1019.21 1019.14 1019.02 1018.84 1018.60 1018.32 1018.03 1017.74 1017.47 1017.25 1017.07 1016.93 1016.84 1016.77 1016.73 1016.70 1016.67 1016.65 1016.65 1016.66 1016.72 1016.81 1016.94 1017.11 1017.32 1017.53 1017.74 1017.93 1018.08 1018.18 1018.23 1018.22 1018.18 1018.11 1018.04 1017.98
1019.51 1019.34 1019.21 1019.12 1019.07 1019.04 1019.00 1018.95 1018.86 1018.72 1018.53 1018.29 1018.03 1017.76 1017.49 1017.25 1017.04 1016.86 1016.72 1016.61 1016.51 1016.43 1016.34 1016.27 1016.20 1016.15 1016.13 1016.15 1016.22 1016.36 1016.54 1016.76 1017.01 1017.26 1017.49 1017.68 1017.82 1017.91 1017.95 1017.94 1017.91 1017.87 1017.84
1019.52 1019.32 1019.15 1019.02 1018.92 1018.84 1018.76 1018.66 1018.54 1018.37 1018.17 1017.94 1017.68 1017.42 1017.18 1016.95 1016.75 1016.58 1016.43 1016.29 1016.17 1016.04 1015.92 1015.79 1015.68 1015.60 1015.56 1015.57 1015.65 1015.79 1015.99 1016.23 1016.51 1016.78 1017.04 1017.27 1017.44 1017.57 1017.64 1017.67 1017.67 1017.66 1017.66
Thickness
5608 5610 5611 5612 5613 5614 5616 5617 5619 5620 5622 5623 5624 5625 5625 5627 5628 5629 5630 5631 5631 5631 5632 5632 5633 5633 5633 5632 5633 5633 5633 5632 5632 5633 5634 5636 5637 5636 5635 5633 5632 5631 5630
5602 5604 5604 5605 5606 5608 5609 5610 5612 5613 5614 5615 5616 5617 5617 5618 5618 5619 5620 5621 5622 5622 5623 5622 5622 5623 5623 5623 5623 5623 5623 5622 5622 5621 5621 5622 5624 5625 5626 5624 5622 5621 5620
5599 5600 5600 5599 5599 5600 5602 5605 5605 5606 5607 5608 5608 5609 5609 5609 5608 5609 5609 5610 5612 5612 5612 5613 5613 5613 5613 5613 5613 5613 5613 5611 5612 5611 5610 5610 5610 5610 5613 5613 5611 5609 5608
5596 5596 5596 5595 5594 5595 5596 5598 5598 5599 5599 5600 5600 5600 5599 5598 5599 5599 5599 5600 5601 5602 5603 5603 5603 5603 5603 5603 5603 5603 5602 5602 5601 5601 5600 5599 5599 5598 5600 5601 5600 5598 5597
5592 5593 5593 5593 5592 5591 5590 5591 5591 5592 5592 5592 5592 5591 5590 5590 5590 5590 5590 5591 5591 5592 5593 5593 5593 5594 5593 5593 5593 5592 5592 5591 5591 5590 5589 5589 5588 5587 5587 5589 5588 5587 5585
5588 5589 5589 5587 5585 5584 5583 5583 5584 5584 5584 5584 5584 5584 5583 5582 5582 5582 5581 5582 5582 5582 5583 5584 5584 5584 5584 5583 5583 5582 5582 5581 5580 5579 5578 5577 5576 5575 5575 5576 5577 5576 5575
5583 5582 5581 5579 5578 5577 5576 5576 5576 5576 5576 5576 5576 5576 5576 5575 5575 5574 5574 5573 5573 5573 5573 5574 5574 5575 5575 5574 5574 5573 5572 5571 5570 5569 5568 5567 5565 5564 5563 5562 5563 5563 5564
5577 5577 5576 5574 5572 5571 5570 5569 5569 5569 5569 5568 5568 5569 5569 5568 5567 5567 5566 5566 5565 5565 5565 5565 5565 5565 5565 5565 5564 5563 5562 5561 5560 5559 5557 5556 5555 5553 5551 5550 5549 5550 5552
5572 5571 5569 5568 5567 5565 5565 5564 5563 5562 5562 5562 5561 5561 5561 5560 5560 5560 5559 5558 5558 5557 5557 5556 5556 5556 5555 5555 5554 5553 5552 5550 5549 5548 5547 5545 5544 5542 5540 5538 5536 5535 5538
5566 5565 5563 5562 5561 5560 5559 5557 5556 5556 5555 5555 5554 5554 5553 5553 5552 5551 5551 5550 5550 5549 5548 5547 5547 5546 5546 5545 5544 5543 5541 5540 5538 5537 5536 5534 5533 5531 5529 5527 5525 5523 5523
5560 5559 5557 5556 5555 5554 5552 5551 5550 5549 5548 5548 5547 5546 5546 5545 5544 5543 5543 5542 5541 5540 5539 5538 5537 5536 5535 5534 5533 5532 5530 5529 5527 5526 5524 5523 5521 5519 5517 5515 5513 5512 5510
5555 5554 5552 5550 5549 5547 5547 5545 5545 5543 5543 5542 5540 5539 5538 5537 5536 5535 5534 5533 5532 5531 5530 5529 5527 5526 5524 5523 5522 5520 5519 5517 5515 5514 5513 5511 5510 5508 5505 5503 5502 5500 5498
5550 5548 5545 5543 5543 5542 5541 5540 5539 5538 5537 5535 5533 5532 5531 5529 5528 5527 5526 5525 5523 5521 5520 5518 5517 5515 5514 5512 5511 5509 5507 5505 5504 5503 5501 5500 5498 5495 5493 5491 5489 5487 5486
5544 5542 5539 5538 5537 5537 5536 5535 5534 5533 5531 5529 5527 5525 5524 5523 5522 5520 5517 5516 5514 5512 5510 5509 5507 5505 5503 5502 5500 5498 5496 5494 5493 5491 5490 5488 5486 5484 5482 5480 5477 5475 5473
5539 5538 5535 5533 5532 5531 5530 5530 5529 5528 5526 5523 5521 5520 5519 5516 5514 5511 5509 5507 5505 5503 5501 5499 5497 5495 5493 5491 5489 5487 5485 5482 5480 5479 5477 5476 5474 5472 5470 5468 5465 5462 5459
5533 5532 5531 5529 5527 5526 5525 5524 5523 5522 5520 5517 5515 5514 5511 5508 5506 5504 5501 5499 5496 5494 5491 5489 5486 5484 5483 5482 5480 5477 5474 5471 5469 5467 5465 5463 5461 5459 5458 5455 5453 5450 5447
5526 5526 5524 5522 5522 5521 5520 5518 5518 5515 5513 5511 5509 5507 5504 5501 5499 5496 5493 5490 5487 5484 5481 5478 5476 5474 5472 5471 5470 5467 5463 5460 5457 5455 5452 5451 5449 5446 5443 5441 5438 5435 5433
5520 5519 5517 5516 5516 5515 5514 5512 5510 5508 5506 5504 5501 5499 5496 5494 5491 5487 5484 5481 5478 5475 5472 5469 5466 5463 5462 5461 5459 5456 5452 5449 5446 5444 5441 5438 5436 5433 5431 5428 5424 5421 5418
5512 5510 5509 5509 5508 5507 5506 5504 5502 5500 5498 5496 5494 5492 5489 5486 5482 5479 5476 5472 5469 5466 5463 5460 5457 5454 5452 5451 5448 5445 5441 5437 5435 5432 5430 5427 5424 5422 5420 5416 5412 5408 5405
5503 5502 5501 5500 5499 5498 5496 5494 5493 5490 5489 5488 5487 5484 5481 5477 5474 5471 5467 5464 5460 5458 5454 5451 5448 5445 5442 5441 5438 5435 5430 5426 5423 5421 5418 5416 5414 5411 5408 5404 5400 5396 5393
5495 5494 5492 5490 5489 5489 5487 5485 5483 5481 5481 5480 5477 5475 5472 5468 5465 5461 5458 5454 5451 5447 5444 5442 5439 5436 5433 5431 5428 5425 5420 5416 5412 5409 5406 5404 5402 5400 5397 5393 5388 5386 5382
5486 5485 5482 5481 5480 5478 5476 5475 5474 5473 5471 5469 5466 5464 5461 5458 5455 5451 5447 5444 5440 5436 5434 5431 5428 5426 5423 5421 5418 5416 5412 5408 5403 5400 5396 5393 5391 5388 5385 5381 5378 5375 5371
5475 5474 5472 5471 5469 5467 5465 5464 5464 5463 5460 5457 5455 5453 5450 5447 5444 5441 5437 5433 5429 5426 5424 5421 5419 5417 5414 5411 5409 5406 5403 5400 5394 5390 5387 5384 5381 5377 5373 5370 5367 5363 5357
5464 5463 5461 5459 5459 5457 5455 5454 5453 5451 5448 5446 5443 5441 5438 5436 5433 5430 5427 5424 5420 5417 5415 5412 5411 5408 5404 5401 5399 5396 5393 5390 5386 5381 5377 5374 5370 5366 5362 5358 5354 5351 5347
5454 5452 5450 5449 5448 5447 5445 5444 5442 5440 5437 5434 5432 5430 5427 5425 5422 5420 5417 5416 5414 5411 5408 5406 5403 5399 5396 5395 5392 5387 5384 5379 5375 5371 5366 5362 5358 5354 5350 5347 5343 5340 5336
5444 5442 5440 5438 5438 5436 5435 5434 5432 5429 5426 5424 5422 5419 5416 5414 5411 5409 5407 5407 5405 5404 5401 5399 5395 5392 5391 5388 5385 5381 5377 5373 5368 5363 5357 5353 5349 5346 5342 5338 5335 5331 5327